TimeEST,TemperatureF,Dew PointF,Humidity,Sea Level PressureIn,VisibilityMPH,Wind Direction,Wind SpeedMPH,Gust SpeedMPH,PrecipitationIn,Events,Conditions,WindDirDegrees,DateUTC
12:53 AM,36.0,23.0,59,29.99,10.0,NNE,10.4,24.2,N/A,,Overcast,30,2013-03-07 05:53:00
1:53 AM,36.0,23.0,59,29.99,10.0,NNE,12.7,25.3,N/A,,Overcast,20,2013-03-07 06:53:00
2:53 AM,36.0,23.0,59,29.99,10.0,NNE,13.8,23.0,N/A,,Overcast,20,2013-03-07 07:53:00
3:53 AM,36.0,23.0,59,30.00,10.0,NNE,15.0,24.2,N/A,,Overcast,30,2013-03-07 08:53:00
4:53 AM,35.1,23.0,61,30.01,10.0,NNE,8.1,-,N/A,,Overcast,30,2013-03-07 09:53:00
5:53 AM,35.1,21.9,59,30.02,10.0,NNE,11.5,-,N/A,,Overcast,30,2013-03-07 10:53:00
6:53 AM,35.1,21.9,59,30.03,10.0,NNE,16.1,24.2,N/A,,Overcast,20,2013-03-07 11:53:00
7:53 AM,36.0,21.0,55,30.05,10.0,NNE,18.4,28.8,N/A,,Scattered Clouds,20,2013-03-07 12:53:00
8:53 AM,37.0,21.9,54,30.06,10.0,NNE,12.7,-,N/A,,Overcast,30,2013-03-07 13:53:00
9:53 AM,37.9,23.0,55,30.06,10.0,North,11.5,18.4,0.00,,Overcast,360,2013-03-07 14:53:00
10:53 AM,37.9,24.1,57,30.07,10.0,North,12.7,20.7,0.00,Rain,Light Rain,10,2013-03-07 15:53:00
11:53 AM,39.9,26.1,58,30.06,10.0,North,9.2,20.7,0.00,Rain,Light Rain,10,2013-03-07 16:53:00
12:53 PM,39.9,27.0,60,30.05,10.0,North,9.2,18.4,0.00,Rain,Light Rain,350,2013-03-07 17:53:00
1:15 PM,39.2,28.4,65,30.04,10.0,North,8.1,-,0.00,Rain,Light Rain,10,2013-03-07 18:15:00
1:53 PM,39.9,28.9,65,30.05,10.0,NNW,9.2,-,0.00,Rain,Light Rain,340,2013-03-07 18:53:00
2:53 PM,37.9,30.0,73,30.07,10.0,North,6.9,-,0.00,Rain,Light Rain,10,2013-03-07 19:53:00
3:11 PM,37.4,30.2,75,30.06,10.0,North,11.5,19.6,0.00,Rain,Light Rain,360,2013-03-07 20:11:00
3:53 PM,37.0,30.0,76,30.08,8.0,North,6.9,17.3,0.00,,Overcast,10,2013-03-07 20:53:00
4:09 PM,35.6,30.2,81,30.08,7.0,North,8.1,-,0.00,,Overcast,10,2013-03-07 21:09:00
4:53 PM,35.1,30.0,82,30.10,4.0,North,8.1,18.4,0.01,Snow,Light Snow,360,2013-03-07 21:53:00
5:15 PM,35.6,30.2,81,30.09,2.0,North,6.9,-,0.00,Snow,Light Snow,350,2013-03-07 22:15:00
5:26 PM,33.8,30.2,87,30.09,1.8,North,6.9,-,0.00,Snow,Light Snow,360,2013-03-07 22:26:00
5:39 PM,33.8,30.2,87,30.09,1.2,North,6.9,-,0.00,Snow,Light Snow,360,2013-03-07 22:39:00
5:53 PM,34.0,30.0,85,30.11,1.5,North,5.8,-,0.00,Snow,Light Snow,350,2013-03-07 22:53:00
6:06 PM,33.8,30.2,87,30.10,3.0,North,8.1,-,0.00,Snow,Light Snow,350,2013-03-07 23:06:00
6:26 PM,33.8,30.2,87,30.10,7.0,Variable,4.6,-,0.00,Snow,Light Snow,0,2013-03-07 23:26:00
6:53 PM,34.0,30.0,85,30.12,8.0,North,4.6,-,0.00,Snow,Light Snow,360,2013-03-07 23:53:00
7:51 PM,33.8,28.4,81,30.10,3.0,North,8.1,-,0.00,Snow,Light Snow,360,2013-03-08 00:51:00
7:53 PM,34.0,28.9,82,30.11,3.0,North,6.9,-,0.00,Snow,Light Snow,10,2013-03-08 00:53:00
8:15 PM,33.8,28.4,81,30.10,4.0,Variable,6.9,-,0.00,Snow,Light Snow,0,2013-03-08 01:15:00
8:53 PM,34.0,28.9,82,30.10,9.0,North,6.9,-,0.00,,Overcast,360,2013-03-08 01:53:00
9:53 PM,34.0,28.0,79,30.09,6.0,North,6.9,-,0.00,,Overcast,360,2013-03-08 02:53:00
10:17 PM,33.8,28.4,81,30.07,3.0,Variable,3.5,-,0.00,Snow,Light Snow,0,2013-03-08 03:17:00
10:31 PM,33.8,28.4,81,30.07,2.5,NNW,5.8,-,0.01,Snow,Light Snow,340,2013-03-08 03:31:00
10:48 PM,33.8,26.6,75,30.07,4.0,North,9.2,-,0.01,Snow,Light Snow,350,2013-03-08 03:48:00
10:53 PM,33.1,27.0,78,30.08,5.0,Variable,4.6,-,0.01,Snow,Light Snow,0,2013-03-08 03:53:00
11:19 PM,33.8,26.6,75,30.07,2.5,Variable,5.8,-,0.00,Snow,Light Snow,0,2013-03-08 04:19:00
11:53 PM,32.0,27.0,82,30.08,2.0,North,4.6,-,0.00,Snow,Light Snow,350,2013-03-08 04:53:00